Find Kosmos-539

NORAD ID: 6319 Int'l Des: 1972-102 Owner: OKB10 Country: SU operational
LEOCIRCULAR

当前视图

正在加载3D地球...

关于 Kosmos-539

正在加载描述...

即将过境

Passes for default location (London). Set your location on the main map for personalized predictions.

高度历史

Loading altitude history...

两行轨道根数

1 06319U 72102A 26146.61789208 -.00000007 00000-0 46868-4 0 9995
2 06319 74.0170 299.1042 0023559 133.5097 302.9144 12.75428713487427
Epoch: May 26, 2026 • Age: 6 hours

当前状态

高度 1364.2 km
速度 7.18 km/s
星下点 51.81°N, 130.14°E
类型 other

Most Searched